FW0394 Weather Reports


Display with metric or nautical units.
time (UTC)temp
F
wind
direction
speed
MPH
gust
MPH
rain 1hr
in
rain 24hr
in
rain mn
in
humidity
%
barometer
mb
20260831134503 77 279 1.0 6.0 0.00 0.00 0.00 83 1011.2
20260831134003 77 279 2.0 10.0 0.00 0.00 0.00 82 1011.3
20260831133503 77 268 4.0 11.0 0.00 0.00 0.00 82 1011.8
20260831133003 77 260 4.0 11.0 0.00 0.00 0.00 83 1011.8
20260831132714 77 256 3.0 10.0 0.00 0.00 0.00 83 1012.1
20260831132004 76 263 3.0 10.0 0.00 0.00 0.00 84 1011.6
20260831131503 76 263 5.0 13.0 0.00 0.00 0.00 84 1011.8
20260831131004 76 257 5.0 13.0 0.00 0.00 0.00 85 1012.1
20260831130503 76 254 3.0 11.0 0.00 0.00 0.00 86 1012.2
20260831130003 76 250 3.0 8.0 0.00 0.00 0.00 87 1011.8
20260831125503 76 252 3.0 8.0 0.00 0.00 0.00 87 1011.8
20260831125215 76 244 2.0 7.0 0.00 0.00 0.00 87 1011.9
20260831124714 75 230 1.0 6.0 0.00 0.00 0.00 88 1011.8
20260831124003 75 208 1.0 6.0 0.00 0.00 0.00 88 1011.8
20260831123503 75 209 2.0 3.0 0.00 0.00 0.00 89 1012.0
20260831123003 75 209 1.0 3.0 0.00 0.00 0.00 89 1011.8
20260831122503 75 208 0.0 2.0 0.00 0.00 0.00 88 1011.5
20260831122003 75 207 1.0 4.0 0.00 0.00 0.00 89 1011.3
20260831121503 75 209 1.0 4.0 0.00 0.00 0.00 89 1011.4
20260831121003 75 214 1.0 4.0 0.00 0.00 0.00 89 1011.2
20260831120713 75 218 1.0 4.0 0.00 0.00 0.00 90 1011.1
20260831120003 74 0 0.0 0.0 0.00 0.00 0.00 90 1010.8
20260831115503 74 192 0.0 2.0 0.00 0.00 0.00 90 1010.7
20260831115003 74 192 1.0 3.0 0.00 0.00 0.00 91 1010.7
20260831114713 74 192 1.0 3.0 0.00 0.00 0.00 90 1010.7
20260831114003 74 191 0.0 3.0 0.00 0.00 0.00 91 1010.4
20260831113503 74 189 1.0 3.0 0.00 0.00 0.00 91 1010.4
20260831113214 74 188 1.0 2.0 0.00 0.00 0.00 91 1010.3
20260831112504 74 174 1.0 4.0 0.00 0.00 0.00 91 1010.2
20260831112214 74 170 1.0 4.0 0.00 0.00 0.00 91 1010.1
20260831111503 74 169 1.0 4.0 0.00 0.00 0.00 91 1010.1
20260831111003 74 169 0.0 2.0 0.00 0.00 0.00 91 1010.2
20260831110503 74 0 0.0 0.0 0.00 0.00 0.00 91 1010.1
20260831110003 74 0 0.0 0.0 0.00 0.00 0.00 91 1010.0
20260831105713 74 0 0.0 0.0 0.00 0.00 0.00 91 1010.0
20260831105214 74 0 0.0 0.0 0.00 0.00 0.00 91 1010.0
20260831104503 74 0 0.0 0.0 0.00 0.00 0.00 91 1010.0
20260831104004 74 0 0.0 0.0 0.00 0.00 0.00 91 1010.0
20260831103503 74 0 0.0 0.0 0.00 0.00 0.00 91 1009.8
20260831103003 74 0 0.0 0.0 0.00 0.00 0.00 91 1009.9
20260831102503 74 0 0.0 0.0 0.00 0.00 0.00 91 1009.8
20260831102003 74 0 0.0 0.0 0.00 0.00 0.00 91 1009.8
20260831101503 74 0 0.0 0.0 0.00 0.00 0.00 91 1009.8
20260831101004 74 0 0.0 0.0 0.00 0.00 0.00 91 1009.7
20260831100503 74 0 0.0 0.0 0.00 0.00 0.00 91 1009.8
20260831100004 75 0 0.0 0.0 0.00 0.00 0.00 91 1009.7
20260831095503 75 0 0.0 0.0 0.00 0.00 0.00 91 1009.6
20260831095003 75 0 0.0 0.0 0.00 0.00 0.00 91 1009.4
20260831094503 75 0 0.0 0.0 0.00 0.00 0.00 91 1009.6
20260831094004 75 0 0.0 0.0 0.00 0.00 0.00 91 1009.6
20260831093503 75 0 0.0 0.0 0.00 0.00 0.00 90 1009.5
20260831093003 75 0 0.0 0.0 0.00 0.00 0.00 91 1009.4
20260831092503 75 0 0.0 0.0 0.00 0.00 0.00 91 1009.4
20260831092213 75 0 0.0 0.0 0.00 0.00 0.00 90 1009.3
20260831091503 75 0 0.0 0.0 0.00 0.00 0.00 90 1009.2
20260831091003 75 0 0.0 0.0 0.00 0.00 0.00 90 1009.3
20260831090503 75 0 0.0 0.0 0.00 0.00 0.00 90 1009.3
20260831090003 75 0 0.0 0.0 0.00 0.00 0.00 90 1009.2
20260831085503 75 0 0.0 0.0 0.00 0.00 0.00 90 1009.1
20260831085003 75 169 0.0 1.0 0.00 0.00 0.00 89 1009.2
20260831084503 75 169 0.0 1.0 0.00 0.00 0.00 89 1009.1
20260831084003 76 169 0.0 1.0 0.00 0.00 0.00 89 1009.0
20260831083714 76 169 0.0 2.0 0.00 0.00 0.00 89 1008.9
20260831083003 76 169 0.0 2.0 0.00 0.00 0.00 89 1008.8
20260831082503 76 169 0.0 2.0 0.00 0.00 0.00 88 1008.8
20260831082003 76 0 0.0 0.0 0.00 0.00 0.00 88 1008.8
20260831081503 76 0 0.0 0.0 0.00 0.00 0.00 88 1008.8
20260831081213 76 0 0.0 0.0 0.00 0.00 0.00 88 1008.6
20260831080503 77 0 0.0 0.0 0.00 0.00 0.00 88 1008.8
20260831080003 77 169 0.0 1.0 0.00 0.00 0.00 88 1008.9
20260831075714 77 169 0.0 2.0 0.00 0.00 0.00 88 1008.8
20260831075003 77 170 0.0 4.0 0.00 0.00 0.00 88 1008.7
20260831074714 77 170 0.0 4.0 0.00 0.00 0.00 88 1008.6
20260831074003 77 173 0.0 2.0 0.00 0.00 0.00 88 1008.7
20260831073503 77 174 1.0 3.0 0.00 0.00 0.00 87 1008.7
20260831073003 77 175 0.0 3.0 0.00 0.00 0.00 87 1008.8
20260831072503 77 0 0.0 0.0 0.00 0.00 0.00 87 1008.8
20260831072004 77 196 1.0 3.0 0.00 0.00 0.00 87 1009.0
20260831071503 77 196 1.0 3.0 0.00 0.00 0.00 87 1008.9
20260831071003 77 0 0.0 0.0 0.00 0.00 0.00 86 1009.0
20260831070503 77 0 0.0 0.0 0.00 0.00 0.00 86 1009.0
20260831070003 77 0 0.0 0.0 0.00 0.00 0.00 86 1009.0
20260831065503 77 0 0.0 0.0 0.00 0.00 0.00 86 1009.0
20260831065003 78 0 0.0 0.0 0.00 0.00 0.00 86 1009.0
20260831064503 78 0 0.0 0.0 0.00 0.00 0.00 85 1009.0
20260831064003 78 0 0.0 0.0 0.00 0.00 0.00 85 1008.9
20260831063503 78 0 0.0 0.0 0.00 0.00 0.00 85 1009.0
20260831063212 78 0 0.0 0.0 0.00 0.00 0.00 85 1009.1
20260831062503 78 0 0.0 0.0 0.00 0.00 0.00 84 1009.0
20260831062003 78 0 0.0 0.0 0.00 0.00 0.00 84 1009.0
20260831061503 78 0 0.0 0.0 0.00 0.00 0.00 84 1008.9
20260831061003 78 0 0.0 0.0 0.00 0.00 0.00 83 1008.8
20260831060713 79 0 0.0 0.0 0.00 0.00 0.00 84 1008.8
20260831060214 79 0 0.0 0.0 0.00 0.00 0.00 83 1008.8
20260831055503 79 0 0.0 0.0 0.00 0.00 0.00 83 1008.7
20260831055003 79 0 0.0 0.0 0.00 0.00 0.00 83 1008.7
20260831054503 79 0 0.0 0.0 0.00 0.00 0.00 83 1008.7
20260831054003 79 0 0.0 0.0 0.00 0.00 0.00 83 1008.6
20260831053503 79 0 0.0 0.0 0.00 0.00 0.00 83 1008.6
20260831053003 79 0 0.0 0.0 0.00 0.00 0.00 83 1008.6
20260831052713 79 0 0.0 0.0 0.00 0.00 0.00 83 1008.5
20260831052004 80 0 0.0 0.0 0.00 0.00 0.00 83 1008.4
20260831051503 80 0 0.0 0.0 0.00 0.00 0.00 82 1008.3
20260831051003 80 0 0.0 0.0 0.00 0.00 0.00 82 1008.3
20260831050503 80 0 0.0 0.0 0.00 0.00 0.00 82 1008.3
20260831050005 80 0 0.0 0.0 0.00 0.00 0.00 82 1008.3
20260831045503 80 0 0.0 0.0 0.00 0.00 0.00 82 1008.2
20260831045003 80 0 0.0 0.0 0.00 0.00 0.00 82 1008.3
20260831044713 80 0 0.0 0.0 0.00 0.00 0.00 81 1008.3
20260831044004 80 0 0.0 0.0 0.00 0.00 0.00 81 1008.3
20260831043503 80 0 0.0 0.0 0.00 0.00 0.00 81 1008.3
20260831043003 80 0 0.0 0.0 0.00 0.00 0.00 81 1008.4
20260831042503 80 0 0.0 0.0 0.00 0.00 0.00 81 1008.3
20260831042217 80 0 0.0 0.0 0.00 0.00 0.00 81 1008.3
20260831041503 80 0 0.0 0.0 0.00 0.00 0.00 80 1008.3
20260831041003 80 0 0.0 0.0 0.00 0.00 0.00 80 1008.4
20260831040503 81 0 0.0 0.0 0.00 0.00 0.00 80 1008.4
20260831040003 81 0 0.0 0.0 0.00 0.00 0.00 79 1008.5
20260831035503 81 0 0.0 0.0 0.00 0.00 0.00 79 1008.6
20260831035003 81 0 0.0 0.0 0.00 0.00 0.00 79 1008.6
20260831034503 81 0 0.0 0.0 0.00 0.00 0.00 79 1008.6
20260831034003 81 0 0.0 0.0 0.00 0.00 0.00 78 1008.7
20260831033503 81 0 0.0 0.0 0.00 0.00 0.00 79 1008.7
20260831033213 81 0 0.0 0.0 0.00 0.00 0.00 79 1008.6
20260831032503 81 219 0.0 1.0 0.00 0.00 0.00 79 1008.6
20260831032003 81 220 0.0 1.0 0.00 0.00 0.00 78 1008.6
20260831031503 81 221 0.0 1.0 0.00 0.00 0.00 78 1008.7
20260831031003 81 0 0.0 0.0 0.00 0.00 0.00 78 1008.8
20260831030505 81 0 0.0 0.0 0.00 0.00 0.00 78 1008.9
20260831030213 81 0 0.0 0.0 0.00 0.00 0.00 78 1009.0
20260831025503 81 0 0.0 0.0 0.00 0.00 0.00 78 1008.9
20260831025003 82 0 0.0 0.0 0.00 0.00 0.00 78 1008.9
20260831024503 82 0 0.0 0.0 0.00 0.00 0.00 77 1008.9
20260831024004 82 0 0.0 0.0 0.00 0.00 0.00 77 1008.9
20260831023503 82 0 0.0 0.0 0.00 0.00 0.00 77 1008.9
20260831023003 82 0 0.0 0.0 0.00 0.00 0.00 77 1008.8
20260831022503 82 0 0.0 0.0 0.00 0.00 0.00 77 1008.8
20260831022003 82 0 0.0 0.0 0.00 0.00 0.00 76 1008.7
20260831021503 82 0 0.0 0.0 0.00 0.00 0.00 76 1008.7
20260831021003 83 0 0.0 0.0 0.00 0.00 0.00 75 1008.7
20260831020714 83 0 0.0 0.0 0.00 0.00 0.00 76 1008.6
20260831020003 83 0 0.0 0.0 0.00 0.00 0.00 74 1008.6
20260831015503 83 0 0.0 0.0 0.00 0.00 0.00 74 1008.5
20260831015003 83 0 0.0 0.0 0.00 0.00 0.00 73 1008.5
20260831014503 84 0 0.0 0.0 0.00 0.00 0.00 73 1008.4
20260831014003 84 0 0.0 0.0 0.00 0.00 0.00 72 1008.2
20260831013503 84 0 0.0 0.0 0.00 0.00 0.00 72 1008.1
20260831013215 84 0 0.0 0.0 0.00 0.00 0.00 72 1008.2
20260831012713 84 0 0.0 0.0 0.00 0.00 0.00 72 1008.2
20260831012003 85 0 0.0 0.0 0.00 0.00 0.00 71 1008.2
20260831011503 85 0 0.0 0.0 0.00 0.00 0.00 71 1008.2
20260831011003 85 0 0.0 0.0 0.00 0.00 0.00 70 1008.2
20260831010713 86 0 0.0 0.0 0.00 0.00 0.00 69 1008.2
20260831010214 86 0 0.0 0.0 0.00 0.00 0.00 68 1008.1
20260831005503 86 0 0.0 0.0 0.00 0.00 0.00 68 1008.0
20260831005212 87 0 0.0 0.0 0.00 0.00 0.00 68 1008.0
20260831004503 88 221 0.0 2.0 0.00 0.00 0.00 65 1008.0
20260831004003 88 221 1.0 4.0 0.00 0.00 0.00 65 1008.1
20260831003503 88 221 1.0 4.0 0.00 0.00 0.00 64 1008.1
20260831003214 88 222 1.0 4.0 0.00 0.00 0.00 64 1008.1
20260831002504 88 226 1.0 3.0 0.00 0.00 0.00 63 1008.1
20260831002003 89 224 1.0 3.0 0.00 0.00 0.00 64 1008.1
20260831001503 89 224 1.0 3.0 0.00 0.00 0.00 63 1008.1
20260831001003 89 224 1.0 3.0 0.00 0.00 0.00 63 1008.1
20260831000503 89 223 1.0 3.0 0.00 0.00 0.00 62 1008.1
20260831000003 90 216 1.0 3.0 0.00 0.00 0.00 62 1008.1
20260830235504 90 204 2.0 5.0 0.00 0.00 0.00 61 1008.0
20260830235004 90 196 2.0 5.0 0.00 0.00 0.00 61 1008.0
20260830234503 90 194 2.0 5.0 0.00 0.00 0.00 61 1008.1
20260830234003 90 203 2.0 6.0 0.00 0.00 0.00 61 1008.1
20260830233503 90 209 2.0 6.0 0.00 0.00 0.00 60 1008.1
20260830233003 90 202 2.0 6.0 0.00 0.00 0.00 61 1008.1
20260830232503 90 194 2.0 4.0 0.00 0.00 0.00 60 1008.0
20260830232003 90 193 2.0 5.0 0.00 0.00 0.00 61 1008.0
20260830231503 90 193 2.0 5.0 0.00 0.00 0.00 61 1008.0
20260830231003 91 209 2.0 5.0 0.00 0.00 0.00 60 1008.0
20260830230503 91 229 3.0 6.0 0.00 0.00 0.00 58 1007.9
20260830230214 91 226 2.0 6.0 0.00 0.00 0.00 59 1007.9
20260830225715 91 231 3.0 7.0 0.00 0.00 0.00 59 1008.0
20260830225003 92 234 3.0 7.0 0.00 0.00 0.00 58 1007.8
20260830224503 92 224 3.0 8.0 0.00 0.00 0.00 57 1007.8
20260830224213 92 224 3.0 8.0 0.00 0.00 0.00 57 1007.9
20260830223712 92 222 3.0 8.0 0.00 0.00 0.00 57 1007.9
20260830223003 92 201 3.0 8.0 0.00 0.00 0.00 57 1007.9
20260830222503 92 199 2.0 7.0 0.00 0.00 0.00 57 1007.8
20260830222003 92 205 3.0 8.0 0.00 0.00 0.00 57 1007.9
20260830221503 92 206 3.0 8.0 0.00 0.00 0.00 57 1007.9
20260830221003 92 212 4.0 8.0 0.00 0.00 0.00 58 1007.9
20260830220503 92 218 4.0 8.0 0.00 0.00 0.00 57 1008.0
20260830220003 92 196 4.0 8.0 0.00 0.00 0.00 56 1007.9
20260830215503 91 184 4.0 9.0 0.00 0.00 0.00 57 1007.9
20260830215213 91 193 4.0 9.0 0.00 0.00 0.00 56 1007.9
20260830214714 91 209 3.0 8.0 0.00 0.00 0.00 56 1007.8
20260830214003 91 198 3.0 8.0 0.00 0.00 0.00 55 1007.8
20260830213503 91 212 3.0 7.0 0.00 0.00 0.00 57 1007.7
20260830213003 91 226 3.0 7.0 0.00 0.00 0.00 56 1007.8
20260830212714 91 231 3.0 7.0 0.00 0.00 0.00 55 1007.8
20260830212004 91 229 3.0 7.0 0.00 0.00 0.00 57 1007.8
20260830211503 90 208 3.0 6.0 0.00 0.00 0.00 61 1007.8
20260830211003 90 189 2.0 6.0 0.00 0.00 0.00 56 1008.0
20260830210503 90 195 2.0 5.0 0.00 0.00 0.00 58 1008.0
20260830210003 89 213 2.0 5.0 0.00 0.00 0.00 58 1008.2
20260830205503 89 211 3.0 7.0 0.00 0.00 0.00 57 1008.2
20260830205003 88 195 3.0 8.0 0.00 0.00 0.00 56 1008.2
20260830204503 88 203 3.0 11.0 0.00 0.00 0.00 56 1008.3
20260830204004 88 213 4.0 11.0 0.00 0.00 0.00 55 1008.4
20260830203503 88 222 4.0 9.0 0.00 0.00 0.00 57 1008.5
20260830203003 88 232 4.0 9.0 0.00 0.00 0.00 58 1008.6
20260830202503 87 230 3.0 9.0 0.00 0.00 0.00 60 1008.5
20260830202003 87 224 3.0 8.0 0.00 0.00 0.00 62 1008.6
20260830201713 87 221 3.0 8.0 0.00 0.00 0.00 61 1008.6
20260830201004 87 211 3.0 8.0 0.00 0.00 0.00 60 1008.4
20260830200504 88 200 4.0 11.0 0.00 0.00 0.00 60 1008.2
20260830200003 88 193 4.0 11.0 0.00 0.00 0.00 58 1008.3
20260830195503 88 190 4.0 9.0 0.00 0.00 0.00 61 1008.3
20260830195003 88 196 5.0 9.0 0.00 0.00 0.00 62 1008.4
20260830194713 88 201 4.0 9.0 0.00 0.00 0.00 62 1008.6
20260830194003 87 203 2.0 7.0 0.00 0.00 0.00 65 1008.6
20260830193503 87 210 2.0 9.0 0.00 0.00 0.00 65 1008.9
20260830193003 86 214 3.0 9.0 0.00 0.00 0.00 64 1008.8
20260830192713 86 214 3.0 8.0 0.00 0.00 0.00 66 1009.0
20260830192003 86 193 4.0 10.0 0.00 0.00 0.00 64 1009.0
20260830191713 86 187 4.0 10.0 0.00 0.00 0.00 64 1009.0
20260830191214 86 183 4.0 10.0 0.00 0.00 0.00 63 1008.9
20260830190503 86 179 4.0 11.0 0.00 0.00 0.00 63 1008.8
20260830190004 87 181 3.0 11.0 0.00 0.00 0.00 62 1008.6
20260830185503 87 179 3.0 8.0 0.00 0.00 0.00 62 1008.4
20260830185004 87 189 4.0 9.0 0.00 0.00 0.00 61 1008.6
20260830184503 87 202 4.0 9.0 0.00 0.00 0.00 61 1008.6
20260830184214 87 204 4.0 9.0 0.00 0.00 0.00 60 1008.6
20260830183503 86 200 4.0 9.0 0.00 0.00 0.00 61 1008.6
20260830183003 86 194 4.0 10.0 0.00 0.00 0.00 61 1008.6
20260830182503 86 190 4.0 10.0 0.00 0.00 0.00 61 1008.5
20260830182003 86 198 4.0 10.0 0.00 0.00 0.00 60 1008.7
20260830181503 86 202 4.0 11.0 0.00 0.00 0.00 64 1008.8
20260830181003 86 199 5.0 14.0 0.00 0.00 0.00 60 1008.9
20260830180713 86 201 4.0 14.0 0.00 0.00 0.00 61 1009.0
20260830180214 86 203 4.0 10.0 0.00 0.00 0.00 62 1009.2
20260830175504 86 205 6.0 12.0 0.00 0.00 0.00 60 1009.2
20260830175004 86 216 5.0 10.0 0.00 0.00 0.00 58 1009.3
20260830174503 86 209 4.0 9.0 0.00 0.00 0.00 60 1009.3
20260830174003 86 193 6.0 15.0 0.00 0.00 0.00 61 1009.2
20260830173503 86 197 7.0 15.0 0.00 0.00 0.00 59 1009.2
20260830173003 86 207 6.0 14.0 0.00 0.00 0.00 58 1009.3
20260830172503 86 206 5.0 14.0 0.00 0.00 0.00 60 1009.3
20260830172004 85 203 5.0 13.0 0.00 0.00 0.00 58 1009.2
20260830171503 86 191 6.0 14.0 0.00 0.00 0.00 58 1009.3
20260830171003 85 183 6.0 14.0 0.00 0.00 0.00 58 1009.2
20260830170503 86 188 7.0 17.0 0.00 0.00 0.00 59 1009.1
20260830170003 85 189 7.0 17.0 0.00 0.00 0.00 57 1009.1
20260830165503 85 181 6.0 14.0 0.00 0.00 0.00 59 1009.1
20260830165213 84 180 5.0 11.0 0.00 0.00 0.00 60 1009.0
20260830164504 85 196 4.0 12.0 0.00 0.00 0.00 59 1009.1
20260830164004 85 198 5.0 13.0 0.00 0.00 0.00 59 1009.1
20260830163503 85 197 6.0 16.0 0.00 0.00 0.00 60 1009.2
20260830163003 84 195 7.0 16.0 0.00 0.00 0.00 57 1009.3
20260830162714 84 191 6.0 15.0 0.00 0.00 0.00 58 1009.1
20260830162003 83 185 5.0 19.0 0.00 0.00 0.00 60 1009.1
20260830161505 83 185 4.0 18.0 0.00 0.00 0.00 59 1009.0
20260830161004 83 187 5.0 17.0 0.00 0.00 0.00 59 1009.0
20260830160503 83 190 6.0 17.0 0.00 0.00 0.00 60 1009.1
20260830160004 83 190 6.0 17.0 0.00 0.00 0.00 58 1009.0
20260830155503 83 199 6.0 17.0 0.00 0.00 0.00 59 1009.0
20260830155004 83 196 8.0 16.0 0.00 0.00 0.00 58 1009.0
20260830154503 83 184 8.0 17.0 0.00 0.00 0.00 59 1009.0
20260830154004 83 179 6.0 17.0 0.00 0.00 0.00 62 1009.0
20260830153714 83 178 5.0 14.0 0.00 0.00 0.00 63 1009.0
20260830153004 82 174 4.0 11.0 0.00 0.00 0.00 65 1009.2
20260830152503 82 171 5.0 11.0 0.00 0.00 0.00 65 1009.1
20260830152003 81 161 4.0 11.0 0.00 0.00 0.00 67 1009.1
20260830151503 81 155 4.0 10.0 0.00 0.00 0.00 67 1009.0
20260830151004 80 159 4.0 9.0 0.00 0.00 0.00 68 1009.0
20260830150503 80 163 4.0 9.0 0.00 0.00 0.00 67 1008.9
20260830150003 80 152 5.0 10.0 0.00 0.00 0.00 69 1008.9
20260830145503 80 143 4.0 10.0 0.00 0.00 0.00 68 1008.9
20260830145003 79 143 3.0 8.0 0.00 0.00 0.00 70 1008.9
20260830144503 79 148 2.0 8.0 0.00 0.00 0.00 71 1009.0
20260830144004 79 150 1.0 5.0 0.00 0.00 0.00 73 1009.0
20260830143503 78 147 1.0 3.0 0.00 0.00 0.00 71 1009.1
20260830143003 78 148 1.0 5.0 0.00 0.00 0.00 71 1009.0
20260830142503 78 151 1.0 5.0 0.00 0.00 0.00 73 1008.9
20260830142003 78 152 2.0 7.0 0.00 0.00 0.00 74 1008.8
20260830141503 78 140 3.0 7.0 0.00 0.00 0.00 72 1008.7
20260830141003 78 135 2.0 7.0 0.00 0.00 0.00 72 1008.7
20260830140503 78 137 1.0 5.0 0.00 0.00 0.00 72 1008.9
20260830140004 78 128 2.0 7.0 0.00 0.00 0.00 71 1009.0
20260830135503 78 130 2.0 7.0 0.00 0.00 0.00 71 1009.0
20260830135003 78 139 1.0 6.0 0.00 0.00 0.00 71 1008.9